Regional Weather Roundup
Issued by NWS

Home | Current Version | Previous Version | Graphics & Text | Print | Product List | Glossary On
Versions: 1 2 3 4 5 6 7 8 9 10 11 12 13 14 15 16 17 18 19 20 21 22 23 24 25 26 27 28 29 30 31 32 33 34 35 36 37 38 39 40 41 42 43 44 45 46 47 48 49 50
000
ASUS43 KOAX 270002
RWRNE

WEATHER ROUNDUP FOR NEBRASKA
NATIONAL WEATHER SERVICE OMAHA NE
700 PM CDT SUN APR 26 2015

NOTES: SATELLITE DATA IS BEING USED TO AUGMENT CLOUD COVER ABOVE
       12000 FEET.
       "FAIR" INDICATES FEW OR NO CLOUDS BELOW 12,000 FEET WITH NO
       SIGNIFICANT WEATHER AND/OR OBSTRUCTIONS TO VISIBILITY.

  * THESE STATIONS DO NOT REPORT WEATHER SUCH AS RAIN...SNOW OR FOG.

NEZ001>004-019>022-054>056-270100-
NEBRASKA PANHANDLE

CITY           SKY/WX    TMP DP  RH WIND       PRES   REMARKS
SCOTTSBLUFF    CLOUDY    46  50 100 E14       30.01R
6HR MIN TEMP:  45; 6HR MAX TEMP:  47; 6HR PCP:  0.04;

ALLIANCE       CLOUDY    47  40  76 SE14      30.01R
6HR MIN TEMP:  44; 6HR MAX TEMP:  50;

CHADRON        CLOUDY    51  46  83 N5        30.02R
6HR MIN TEMP:  47; 6HR MAX TEMP:  53; 6HR PCP: TRACE;

KIMBALL        CLOUDY    42  41  98 E13       29.97S
SIDNEY         FOG       41  40  96 E14       30.00R VSB 1/4
6HR MIN TEMP:  41; 6HR MAX TEMP:  43; 6HR PCP:  0.01;

$$

NEZ057>060-069>072-079>082-270100-
SOUTHWEST NEBRASKA

CITY           SKY/WX    TMP DP  RH WIND       PRES   REMARKS
IMPERIAL       CLOUDY    46  43  89 E12       29.98S FOG
6HR MIN TEMP:  43; 6HR MAX TEMP:  46; 6HR PCP:  0.01;

MCCOOK         CLOUDY    53  43  68 E12       29.96F
6HR MIN TEMP:  45; 6HR MAX TEMP:  53;

$$

NEZ005>010-023>029-035>040-094-270100-
NORTH CENTRAL NEBRASKA

CITY           SKY/WX    TMP DP  RH WIND       PRES   REMARKS
VALENTINE      PTSUNNY   59  36  42 E10       30.02R
6HR MIN TEMP:  50; 6HR MAX TEMP:  60;

AINSWORTH      MOSUNNY   60  32  34 E12       30.03R
BROKEN BOW     CLOUDY    56  40  55 E10       30.00S
6HR MIN TEMP:  54; 6HR MAX TEMP:  60;

ORD            MOSUNNY   59  37  44 E12       30.00R
6HR MIN TEMP:  55; 6HR MAX TEMP:  61;

$$

NEZ041-046>049-061>064-073>077-083>087-270100-
SOUTH CENTRAL NEBRASKA

CITY           SKY/WX    TMP DP  RH WIND       PRES   REMARKS
GRAND ISLAND   MOSUNNY   58  41  53 E14       30.00S
6HR MIN TEMP:  53; 6HR MAX TEMP:  59;

AURORA         MOSUNNY   58  42  54 E14       29.99S
HASTINGS       PTSUNNY   56  42  59 E10       29.98R
6HR MIN TEMP:  53; 6HR MAX TEMP:  58;

KEARNEY *      CLOUDY    55  43  62 E12       29.99S
YORK           SUNNY     59  41  51 E15       29.99S
$$

NEZ011>018-030>034-042>045-270100-
NORTHEAST NEBRASKA

CITY           SKY/WX    TMP DP  RH WIND       PRES   REMARKS
NORFOLK        SUNNY     62  32  32 E13       30.02R
6HR MIN TEMP:  58; 6HR MAX TEMP:  64;

BLAIR          SUNNY     60  34  37 NE7       30.00F
COLUMBUS *     SUNNY     61  37  41 E10       30.03R
TEKAMAH        SUNNY     64  34  32 NE13      30.01S
6HR MIN TEMP:  59; 6HR MAX TEMP:  66;

$$

NEZ050>053-065>068-078-088>093-270100-
SOUTHEAST NEBRASKA

CITY           SKY/WX    TMP DP  RH WIND       PRES   REMARKS
LINCOLN        SUNNY     62  36  37 E16       30.00S
6HR MIN TEMP:  57; 6HR MAX TEMP:  64;

OMAHA EPPLEY   MOSUNNY   62  35  36 E15       30.00S
6HR MIN TEMP:  58; 6HR MAX TEMP:  64;

FALLS CITY     SUNNY     62  37  39 NE14      29.94F
6HR MIN TEMP:  54; 6HR MAX TEMP:  63;

NEBRASKA CITY  SUNNY     61  26  26 E14       29.98S
PLATTSMOUTH    SUNNY     61  30  31 NE13      30.00S
$$

NEZ044-045-051>053-067-270100-
OMAHA AREA

CITY           SKY/WX    TMP DP  RH WIND       PRES   REMARKS
OMAHA EPPLEY   MOSUNNY   62  35  36 E15       30.00S
6HR MIN TEMP:  58; 6HR MAX TEMP:  64;

BLAIR          SUNNY     60  34  37 NE7       30.00F
OFFUTT AFB     SUNNY     62  35  37 NE13      29.99S
PLATTSMOUTH    SUNNY     61  30  31 NE13      30.00S
WAHOO          FAIR      62  33  33 E14       30.00S
$$



USA.gov is the U.S. government's official web portal to all federal, state and local government web resources and services.